User: anonymous   Login
Location: Wien
(48.2082°N, 16.3738°E)
Time: 03:48:39
(UTC+02:00)
Language:

Transit 4A - Orbit

View from above orbital plane
View from above orbital plane
View from above satellite
View from above satellite

Ground track
Ground track

The orbit data is extracted from the following two-line orbital elements,

1 00116U 61015A   24167.58956532  .00000041  00000-0  89910-4 0  9990
2 00116  66.8094 240.6679 0068994  63.6520 297.1622 13.92051020194865
Epoch (UTC): 15 June 2024 14:08:58
Eccentricity: 0.0068994
inclination: 66.8094°
perigee height: 871 km
apogee height: 972 km
right ascension of ascending node: 240.6679°
argument of perigee: 63.6520°
revolutions per day: 13.92051020
mean anomaly at epoch: 297.1622°
orbit number at epoch: 19486

The dashed part of the orbit path shows where the satellite is in the earth's shadow,  

DLR